Location: ??????????
(54.8537°N, 38.8755°E)
Time: 13:06:51
(UTC+00:00)

Tiros 1 despin weight - Pass Details

Date: 17 September 2024
Orbit: 572 x 614 km, 48.2° (Epoch: 12 October)

Event Time Altitude Azimuth Distance (km) Brightness Sun altitude
Rises 04:11:42 0° 268° (W) 2,886 ? 9.3°
Reaches altitude 10° 04:14:16 10° 256° (WSW) 1,981 ? 9.6°
Maximum altitude 04:18:05 27° 199° (SSW) 1,194 ? 10.2°
Drops below altitude 10° 04:21:54 10° 142° (SE) 1,972 ? 10.7°
Sets 04:24:27 0° 130° (SE) 2,871 ? 11.1°
